Wetterdaten: Mittwoch, 30.09.2015
Datum Zeit Auen-Temp. Temp gefhlt Luftfeuchte Luftdruck Regen Wind Richtung Richtung Taupunkt Windben
30.09.2015 00:00 4,2 C 3,8 C 84 % 1026,4 hPa 0,0 mm 1,3 km/h (1 Bft) SO 135 1,7 C 5,2 km/h (1 Bft)
30.09.2015 00:05 4,2 C 3,8 C 85 % 1026,4 hPa 0,0 mm 1,3 km/h (1 Bft) S-SO 157 1,9 C 0,0 km/h (0 Bft)
30.09.2015 00:10 4,0 C 3,7 C 84 % 1026,4 hPa 0,0 mm 0,8 km/h (0 Bft) SO 135 1,5 C 0,0 km/h (0 Bft)
30.09.2015 00:15 4,3 C 3,9 C 85 % 1026,6 hPa 0,0 mm 1,6 km/h (1 Bft) S-SO 157 2,0 C 5,7 km/h (1 Bft)
30.09.2015 00:20 4,2 C 3,8 C 85 % 1026,6 hPa 0,0 mm 2,8 km/h (1 Bft) S-SO 157 1,9 C 9,1 km/h (2 Bft)
30.09.2015 00:25 4,1 C 3,7 C 85 % 1026,6 hPa 0,0 mm 2,1 km/h (1 Bft) N-NO 22 1,8 C 3,1 km/h (1 Bft)
30.09.2015 00:30 3,9 C 3,6 C 85 % 1026,6 hPa 0,0 mm 1,0 km/h (0 Bft) S 180 1,6 C 0,0 km/h (0 Bft)
30.09.2015 00:35 3,8 C 3,5 C 85 % 1026,4 hPa 0,0 mm 1,3 km/h (1 Bft) O-SO 112 1,5 C 3,1 km/h (1 Bft)
30.09.2015 00:40 3,9 C 3,5 C 85 % 1026,4 hPa 0,0 mm 0,8 km/h (0 Bft) S-SO 157 1,6 C 3,4 km/h (1 Bft)
30.09.2015 00:45 3,9 C 3,5 C 85 % 1026,4 hPa 0,0 mm 1,3 km/h (1 Bft) SO 135 1,6 C 3,4 km/h (1 Bft)
30.09.2015 00:50 3,9 C 3,6 C 86 % 1026,4 hPa 0,0 mm 1,6 km/h (1 Bft) O 90 1,8 C 3,1 km/h (1 Bft)
30.09.2015 00:55 3,9 C 3,6 C 86 % 1026,1 hPa 0,0 mm 1,6 km/h (1 Bft) O-SO 112 1,8 C 0,0 km/h (0 Bft)
30.09.2015 01:00 3,9 C 3,5 C 86 % 1026,1 hPa 0,0 mm 1,3 km/h (1 Bft) SO 135 1,8 C 0,0 km/h (0 Bft)
30.09.2015 01:05 3,8 C 3,5 C 86 % 1026,1 hPa 0,0 mm 1,3 km/h (1 Bft) SO 135 1,7 C 3,4 km/h (1 Bft)
30.09.2015 01:10 3,6 C 3,3 C 86 % 1026,1 hPa 0,0 mm 1,0 km/h (0 Bft) SO 135 1,5 C 0,0 km/h (0 Bft)
30.09.2015 01:15 3,6 C 3,3 C 86 % 1025,9 hPa 0,0 mm 1,0 km/h (0 Bft) O 90 1,5 C 0,0 km/h (0 Bft)
30.09.2015 01:20 3,5 C 3,1 C 86 % 1025,9 hPa 0,0 mm 0,3 km/h (0 Bft) O-SO 112 1,4 C 0,0 km/h (0 Bft)
30.09.2015 01:25 3,4 C 3,0 C 86 % 1025,9 hPa 0,0 mm 0,0 km/h (0 Bft) SO 135 1,3 C 0,0 km/h (0 Bft)
30.09.2015 01:30 3,6 C 3,1 C 87 % 1025,9 hPa 0,0 mm 0,8 km/h (0 Bft) N 360 1,6 C 2,6 km/h (1 Bft)
30.09.2015 01:35 3,4 C 3,0 C 87 % 1025,8 hPa 0,0 mm 0,8 km/h (0 Bft) O-NO 67 1,4 C 0,0 km/h (0 Bft)
30.09.2015 01:40 3,3 C 2,9 C 87 % 1025,8 hPa 0,0 mm 0,5 km/h (0 Bft) O-SO 112 1,3 C 2,6 km/h (1 Bft)
30.09.2015 01:45 3,3 C 2,9 C 88 % 1025,8 hPa 0,0 mm 0,8 km/h (0 Bft) SO 135 1,5 C 0,0 km/h (0 Bft)
30.09.2015 01:50 3,4 C 3,1 C 88 % 1025,8 hPa 0,0 mm 1,8 km/h (1 Bft) SO 135 1,6 C 0,0 km/h (0 Bft)
30.09.2015 01:55 3,4 C 3,1 C 88 % 1025,9 hPa 0,0 mm 2,1 km/h (1 Bft) O-SO 112 1,6 C 4,4 km/h (1 Bft)
30.09.2015 02:00 3,6 C 3,3 C 89 % 1025,9 hPa 0,0 mm 2,1 km/h (1 Bft) O-NO 67 2,0 C 0,0 km/h (0 Bft)
30.09.2015 02:03 3,5 C 3,2 C 89 % 1025,9 hPa 0,0 mm 2,6 km/h (1 Bft) O-NO 67 1,9 C 0,0 km/h (0 Bft)
30.09.2015 02:05 3,5 C 3,2 C 89 % 1025,9 hPa 0,0 mm 2,6 km/h (1 Bft) O-NO 67 1,9 C 0,0 km/h (0 Bft)
30.09.2015 02:10 3,5 C 3,1 C 89 % 1025,9 hPa 0,0 mm 1,6 km/h (1 Bft) O-NO 67 1,9 C 2,8 km/h (1 Bft)
30.09.2015 02:15 3,5 C 3,1 C 89 % 1026,1 hPa 0,0 mm 2,1 km/h (1 Bft) O-SO 112 1,9 C 0,0 km/h (0 Bft)
30.09.2015 02:20 3,5 C 3,1 C 89 % 1026,1 hPa 0,0 mm 2,3 km/h (1 Bft) O-SO 112 1,9 C 0,0 km/h (0 Bft)
30.09.2015 02:25 3,4 C 3,1 C 89 % 1026,1 hPa 0,0 mm 2,1 km/h (1 Bft) NO 45 1,8 C 2,6 km/h (1 Bft)
30.09.2015 02:30 3,2 C 2,9 C 89 % 1026,1 hPa 0,0 mm 1,3 km/h (1 Bft) O-SO 112 1,6 C 0,0 km/h (0 Bft)
30.09.2015 02:35 3,1 C 2,8 C 89 % 1026,1 hPa 0,0 mm 0,5 km/h (0 Bft) S 180 1,5 C 0,0 km/h (0 Bft)
30.09.2015 02:40 3,1 C 2,7 C 89 % 1026,1 hPa 0,0 mm 0,3 km/h (0 Bft) O-SO 112 1,5 C 2,6 km/h (1 Bft)
30.09.2015 02:45 3,0 C 2,7 C 89 % 1026,1 hPa 0,0 mm 0,3 km/h (0 Bft) S-SO 157 1,4 C 0,0 km/h (0 Bft)
30.09.2015 02:50 3,0 C 2,6 C 88 % 1026,1 hPa 0,0 mm 0,5 km/h (0 Bft) SO 135 1,2 C 0,0 km/h (0 Bft)
30.09.2015 02:55 2,9 C 2,6 C 89 % 1025,9 hPa 0,0 mm 0,3 km/h (0 Bft) O-SO 112 1,3 C 0,0 km/h (0 Bft)
30.09.2015 03:00 2,7 C 2,4 C 89 % 1025,9 hPa 0,0 mm 0,0 km/h (0 Bft) SO 135 1,1 C 0,0 km/h (0 Bft)
30.09.2015 03:05 2,6 C 2,2 C 89 % 1025,9 hPa 0,0 mm 0,0 km/h (0 Bft) SO 135 1,0 C 0,0 km/h (0 Bft)
30.09.2015 03:10 2,1 C 1,8 C 88 % 1025,9 hPa 0,0 mm 0,0 km/h (0 Bft) SO 135 0,3 C 0,0 km/h (0 Bft)
30.09.2015 03:15 2,1 C 1,8 C 88 % 1025,9 hPa 0,0 mm 0,0 km/h (0 Bft) SO 135 0,3 C 0,0 km/h (0 Bft)
30.09.2015 03:20 2,1 C 1,8 C 85 % 1025,9 hPa 0,0 mm 0,0 km/h (0 Bft) SO 135 -0,2 C 0,0 km/h (0 Bft)
30.09.2015 03:25 1,7 C 1,4 C 89 % 1025,9 hPa 0,0 mm 0,0 km/h (0 Bft) SO 135 0,1 C 0,0 km/h (0 Bft)
30.09.2015 03:30 1,4 C 1,1 C 88 % 1025,9 hPa 0,0 mm 0,0 km/h (0 Bft) SO 135 -0,4 C 0,0 km/h (0 Bft)
30.09.2015 03:35 1,6 C 1,1 C 88 % 1025,9 hPa 0,0 mm 0,0 km/h (0 Bft) S-SO 157 -0,2 C 0,0 km/h (0 Bft)
30.09.2015 03:40 1,4 C 1,1 C 89 % 1025,9 hPa 0,0 mm 0,0 km/h (0 Bft) S-SO 157 -0,2 C 0,0 km/h (0 Bft)
30.09.2015 03:45 1,2 C 0,9 C 88 % 1025,9 hPa 0,0 mm 0,0 km/h (0 Bft) S-SO 157 -0,6 C 0,0 km/h (0 Bft)
30.09.2015 03:50 1,0 C 0,8 C 88 % 1025,9 hPa 0,0 mm 0,0 km/h (0 Bft) S-SO 157 -0,8 C 0,0 km/h (0 Bft)
30.09.2015 03:55 0,9 C 0,7 C 89 % 1025,9 hPa 0,0 mm 0,0 km/h (0 Bft) S-SO 157 -0,7 C 0,0 km/h (0 Bft)
30.09.2015 04:00 0,8 C 0,6 C 89 % 1025,9 hPa 0,0 mm 0,0 km/h (0 Bft) S-SO 157 -0,8 C 0,0 km/h (0 Bft)
30.09.2015 04:05 0,9 C 0,7 C 89 % 1025,9 hPa 0,0 mm 0,0 km/h (0 Bft) S-SO 157 -0,7 C 0,0 km/h (0 Bft)
30.09.2015 04:10 1,4 C 1,1 C 89 % 1025,9 hPa 0,0 mm 0,0 km/h (0 Bft) SO 135 -0,2 C 0,0 km/h (0 Bft)
30.09.2015 04:15 1,1 C 1,0 C 89 % 1025,9 hPa 0,0 mm 0,0 km/h (0 Bft) S-SO 157 -0,5 C 0,0 km/h (0 Bft)
30.09.2015 04:20 0,8 C 0,7 C 89 % 1025,9 hPa 0,0 mm 0,0 km/h (0 Bft) S-SO 157 -0,8 C 0,0 km/h (0 Bft)
30.09.2015 04:25 0,8 C 0,7 C 89 % 1025,9 hPa 0,0 mm 0,0 km/h (0 Bft) S-SO 157 -0,8 C 0,0 km/h (0 Bft)
30.09.2015 04:30 1,0 C 0,8 C 89 % 1025,9 hPa 0,0 mm 0,0 km/h (0 Bft) O-NO 67 -0,6 C 0,0 km/h (0 Bft)
30.09.2015 04:35 1,1 C 0,9 C 89 % 1025,9 hPa 0,0 mm 0,3 km/h (0 Bft) S 180 -0,5 C 0,0 km/h (0 Bft)
30.09.2015 04:40 1,3 C 1,6 C 85 % 1025,9 hPa 0,0 mm 0,3 km/h (0 Bft) O-NO 67 -0,9 C 0,0 km/h (0 Bft)
30.09.2015 04:45 1,4 C 1,5 C 85 % 1025,9 hPa 0,0 mm 0,3 km/h (0 Bft) S 180 -0,8 C 0,0 km/h (0 Bft)
30.09.2015 04:50 1,4 C 1,8 C 90 % 1025,9 hPa 0,0 mm 0,0 km/h (0 Bft) NO 45 -0,1 C 0,0 km/h (0 Bft)
30.09.2015 04:55 1,2 C 1,6 C 89 % 1025,8 hPa 0,0 mm 0,0 km/h (0 Bft) S 180 -0,4 C 0,0 km/h (0 Bft)
30.09.2015 05:00 1,3 C 1,6 C 89 % 1025,8 hPa 0,0 mm 0,0 km/h (0 Bft) S 180 -0,3 C 2,6 km/h (1 Bft)
30.09.2015 05:05 1,6 C 2,1 C 86 % 1025,8 hPa 0,0 mm 0,8 km/h (0 Bft) S-SO 157 -0,5 C 0,0 km/h (0 Bft)
30.09.2015 05:10 1,9 C 2,3 C 86 % 1025,8 hPa 0,0 mm 0,8 km/h (0 Bft) S-SO 157 -0,2 C 0,0 km/h (0 Bft)
30.09.2015 05:15 2,1 C 2,4 C 86 % 1025,8 hPa 0,0 mm 0,0 km/h (0 Bft) SO 135 0,0 C 0,0 km/h (0 Bft)
30.09.2015 05:20 2,2 C 2,6 C 86 % 1025,8 hPa 0,0 mm 0,0 km/h (0 Bft) S-SO 157 0,1 C 0,0 km/h (0 Bft)
30.09.2015 05:25 2,3 C 2,5 C 86 % 1025,8 hPa 0,0 mm 0,0 km/h (0 Bft) S-SO 157 0,2 C 0,0 km/h (0 Bft)
30.09.2015 05:30 2,6 C 2,8 C 86 % 1025,8 hPa 0,0 mm 0,3 km/h (0 Bft) S-SW 202 0,5 C 0,0 km/h (0 Bft)
30.09.2015 05:35 2,9 C 2,9 C 86 % 1025,6 hPa 0,0 mm 0,3 km/h (0 Bft) S-SW 202 0,8 C 0,0 km/h (0 Bft)
30.09.2015 05:40 3,1 C 3,0 C 90 % 1025,6 hPa 0,0 mm 0,0 km/h (0 Bft) SW 225 1,6 C 0,0 km/h (0 Bft)
30.09.2015 05:45 3,2 C 3,2 C 86 % 1025,6 hPa 0,0 mm 0,0 km/h (0 Bft) SW 225 1,1 C 0,0 km/h (0 Bft)
30.09.2015 05:50 3,3 C 3,3 C 86 % 1025,6 hPa 0,0 mm 0,0 km/h (0 Bft) O 90 1,2 C 0,0 km/h (0 Bft)
30.09.2015 05:55 3,4 C 3,4 C 86 % 1025,6 hPa 0,0 mm 0,3 km/h (0 Bft) O-SO 112 1,3 C 4,7 km/h (1 Bft)
30.09.2015 06:00 3,5 C 3,5 C 86 % 1025,6 hPa 0,0 mm 0,3 km/h (0 Bft) O-SO 112 1,4 C 0,0 km/h (0 Bft)
30.09.2015 06:05 3,5 C 3,6 C 86 % 1025,6 hPa 0,0 mm 0,8 km/h (0 Bft) O-NO 67 1,4 C 0,0 km/h (0 Bft)
30.09.2015 06:10 3,6 C 3,6 C 86 % 1025,6 hPa 0,0 mm 0,8 km/h (0 Bft) SO 135 1,5 C 0,0 km/h (0 Bft)
30.09.2015 06:15 3,5 C 3,6 C 86 % 1025,5 hPa 0,0 mm 0,5 km/h (0 Bft) S 180 1,4 C 3,6 km/h (1 Bft)
30.09.2015 06:20 3,6 C 3,6 C 86 % 1025,5 hPa 0,0 mm 2,3 km/h (1 Bft) N-NO 22 1,5 C 6,7 km/h (2 Bft)
30.09.2015 06:25 3,6 C 3,7 C 86 % 1025,5 hPa 0,0 mm 2,8 km/h (1 Bft) O-SO 112 1,5 C 6,0 km/h (2 Bft)
30.09.2015 06:30 3,6 C 3,6 C 86 % 1025,5 hPa 0,0 mm 2,1 km/h (1 Bft) O-NO 67 1,5 C 3,1 km/h (1 Bft)
30.09.2015 06:35 3,6 C 3,7 C 86 % 1025,6 hPa 0,0 mm 1,3 km/h (1 Bft) O-NO 67 1,5 C 0,0 km/h (0 Bft)
30.09.2015 06:40 3,7 C 3,7 C 86 % 1025,6 hPa 0,0 mm 0,5 km/h (0 Bft) O-SO 112 1,6 C 0,0 km/h (0 Bft)
30.09.2015 06:45 3,7 C 3,7 C 86 % 1025,6 hPa 0,0 mm 0,8 km/h (0 Bft) N-NO 22 1,6 C 0,0 km/h (0 Bft)
30.09.2015 06:50 3,7 C 3,8 C 86 % 1025,6 hPa 0,0 mm 0,8 km/h (0 Bft) O-NO 67 1,6 C 0,0 km/h (0 Bft)
30.09.2015 06:55 3,7 C 3,7 C 87 % 1025,9 hPa 0,0 mm 1,3 km/h (1 Bft) NO 45 1,7 C 4,1 km/h (1 Bft)
30.09.2015 07:00 3,7 C 3,7 C 87 % 1025,9 hPa 0,0 mm 2,6 km/h (1 Bft) NO 45 1,7 C 0,0 km/h (0 Bft)
30.09.2015 07:05 3,7 C 3,7 C 87 % 1025,9 hPa 0,0 mm 2,3 km/h (1 Bft) O-NO 67 1,7 C 0,0 km/h (0 Bft)
30.09.2015 07:10 3,7 C 3,7 C 87 % 1025,9 hPa 0,0 mm 1,8 km/h (1 Bft) SO 135 1,7 C 3,6 km/h (1 Bft)
30.09.2015 07:15 3,7 C 3,7 C 87 % 1025,8 hPa 0,0 mm 1,8 km/h (1 Bft) O-NO 67 1,7 C 3,4 km/h (1 Bft)
30.09.2015 07:20 3,6 C 3,7 C 87 % 1025,8 hPa 0,0 mm 2,1 km/h (1 Bft) SO 135 1,6 C 2,6 km/h (1 Bft)
30.09.2015 07:25 3,6 C 3,6 C 87 % 1025,8 hPa 0,0 mm 2,3 km/h (1 Bft) O-NO 67 1,6 C 5,4 km/h (1 Bft)
30.09.2015 07:30 3,6 C 3,6 C 87 % 1025,8 hPa 0,0 mm 2,6 km/h (1 Bft) NO 45 1,6 C 0,0 km/h (0 Bft)
30.09.2015 07:35 3,6 C 3,6 C 87 % 1025,9 hPa 0,0 mm 2,6 km/h (1 Bft) NO 45 1,6 C 4,7 km/h (1 Bft)
30.09.2015 07:40 3,6 C 3,6 C 87 % 1025,9 hPa 0,0 mm 2,1 km/h (1 Bft) O-SO 112 1,6 C 3,9 km/h (1 Bft)
30.09.2015 07:45 3,6 C 3,6 C 87 % 1025,9 hPa 0,0 mm 2,3 km/h (1 Bft) N-NO 22 1,6 C 2,8 km/h (1 Bft)
30.09.2015 07:50 3,5 C 3,6 C 87 % 1025,9 hPa 0,0 mm 2,1 km/h (1 Bft) N-NO 22 1,5 C 5,2 km/h (1 Bft)
30.09.2015 07:55 3,5 C 3,5 C 87 % 1025,7 hPa 0,0 mm 3,1 km/h (1 Bft) O 90 1,5 C 5,4 km/h (1 Bft)
30.09.2015 08:00 3,5 C 3,4 C 87 % 1025,7 hPa 0,0 mm 4,9 km/h (1 Bft) O-NO 67 1,5 C 8,0 km/h (2 Bft)
30.09.2015 08:04 3,4 C 3,5 C 87 % 1025,7 hPa 0,0 mm 4,1 km/h (1 Bft) O-SO 112 1,4 C 3,4 km/h (1 Bft)
30.09.2015 08:05 3,4 C 3,5 C 87 % 1025,7 hPa 0,0 mm 4,1 km/h (1 Bft) O-SO 112 1,4 C 3,4 km/h (1 Bft)
30.09.2015 08:10 3,4 C 3,5 C 87 % 1025,7 hPa 0,0 mm 3,9 km/h (1 Bft) SO 135 1,4 C 9,3 km/h (2 Bft)
30.09.2015 08:15 3,4 C 3,5 C 87 % 1025,8 hPa 0,0 mm 3,6 km/h (1 Bft) O-NO 67 1,4 C 7,3 km/h (2 Bft)
30.09.2015 08:20 3,4 C 3,5 C 87 % 1025,8 hPa 0,0 mm 3,6 km/h (1 Bft) N-NO 22 1,4 C 9,8 km/h (2 Bft)
30.09.2015 08:25 3,4 C 3,4 C 87 % 1025,8 hPa 0,0 mm 4,1 km/h (1 Bft) O-SO 112 1,4 C 6,7 km/h (2 Bft)
30.09.2015 08:30 3,4 C 3,6 C 87 % 1025,8 hPa 0,0 mm 2,8 km/h (1 Bft) NO 45 1,4 C 0,0 km/h (0 Bft)
30.09.2015 08:35 3,5 C 3,7 C 87 % 1026,2 hPa 0,0 mm 2,6 km/h (1 Bft) N-NO 22 1,5 C 8,8 km/h (2 Bft)
30.09.2015 08:40 3,5 C 3,7 C 87 % 1026,2 hPa 0,0 mm 3,9 km/h (1 Bft) O-NO 67 1,5 C 11,1 km/h (2 Bft)
30.09.2015 08:45 3,5 C 3,6 C 87 % 1026,2 hPa 0,0 mm 4,9 km/h (1 Bft) O-NO 67 1,5 C 4,7 km/h (1 Bft)
30.09.2015 08:50 3,6 C 3,8 C 87 % 1026,2 hPa 0,0 mm 4,7 km/h (1 Bft) S 180 1,6 C 11,4 km/h (2 Bft)
30.09.2015 08:55 3,5 C 3,7 C 87 % 1026,3 hPa 0,0 mm 4,4 km/h (1 Bft) O-SO 112 1,5 C 8,8 km/h (2 Bft)
30.09.2015 09:00 3,6 C 3,7 C 87 % 1026,3 hPa 0,0 mm 4,9 km/h (1 Bft) N-NO 22 1,6 C 13,2 km/h (3 Bft)
30.09.2015 09:05 3,6 C 3,7 C 87 % 1026,3 hPa 0,0 mm 5,7 km/h (1 Bft) NO 45 1,6 C 7,5 km/h (2 Bft)
30.09.2015 09:10 3,6 C 3,6 C 87 % 1026,3 hPa 0,0 mm 7,0 km/h (2 Bft) N-NO 22 1,6 C 19,2 km/h (3 Bft)
30.09.2015 09:15 3,7 C 3,7 C 87 % 1026,6 hPa 0,0 mm 6,5 km/h (2 Bft) N-NO 22 1,7 C 0,0 km/h (0 Bft)
30.09.2015 09:20 3,7 C 3,7 C 87 % 1026,6 hPa 0,0 mm 6,2 km/h (2 Bft) O-NO 67 1,7 C 14,2 km/h (3 Bft)
30.09.2015 09:25 3,7 C 3,6 C 87 % 1026,6 hPa 0,0 mm 7,0 km/h (2 Bft) SO 135 1,7 C 4,1 km/h (1 Bft)
30.09.2015 09:30 3,8 C 3,8 C 87 % 1026,6 hPa 0,0 mm 7,0 km/h (2 Bft) NO 45 1,8 C 12,9 km/h (3 Bft)
30.09.2015 09:35 3,8 C 3,9 C 87 % 1026,7 hPa 0,0 mm 6,2 km/h (2 Bft) N-NW 337 1,8 C 10,6 km/h (2 Bft)
30.09.2015 09:40 3,8 C 3,8 C 87 % 1026,7 hPa 0,0 mm 7,3 km/h (2 Bft) NO 45 1,8 C 4,1 km/h (1 Bft)
30.09.2015 09:45 4,0 C 3,9 C 87 % 1026,7 hPa 0,0 mm 6,7 km/h (2 Bft) O-NO 67 2,0 C 6,5 km/h (2 Bft)
30.09.2015 09:50 4,1 C 4,2 C 87 % 1026,7 hPa 0,0 mm 5,7 km/h (1 Bft) SO 135 2,1 C 6,7 km/h (2 Bft)
30.09.2015 09:55 4,0 C 4,1 C 87 % 1026,8 hPa 0,0 mm 7,0 km/h (2 Bft) NO 45 2,0 C 8,5 km/h (2 Bft)
30.09.2015 10:00 4,1 C 4,0 C 87 % 1026,8 hPa 0,0 mm 8,8 km/h (2 Bft) O-NO 67 2,1 C 8,3 km/h (2 Bft)
30.09.2015 10:05 4,2 C 4,3 C 87 % 1026,8 hPa 0,0 mm 7,5 km/h (2 Bft) N-NO 22 2,2 C 3,4 km/h (1 Bft)
30.09.2015 10:10 4,3 C 4,6 C 87 % 1026,8 hPa 0,0 mm 6,2 km/h (2 Bft) SO 135 2,3 C 2,8 km/h (1 Bft)
30.09.2015 10:15 4,3 C 4,9 C 87 % 1027,0 hPa 0,0 mm 5,2 km/h (1 Bft) NO 45 2,3 C 9,1 km/h (2 Bft)
30.09.2015 10:20 4,5 C 5,2 C 87 % 1027,0 hPa 0,0 mm 4,7 km/h (1 Bft) N-NO 22 2,5 C 6,2 km/h (2 Bft)
30.09.2015 10:25 4,6 C 5,0 C 87 % 1027,0 hPa 0,0 mm 6,2 km/h (2 Bft) NO 45 2,6 C 14,8 km/h (3 Bft)
30.09.2015 10:30 4,6 C 5,0 C 87 % 1027,0 hPa 0,0 mm 7,3 km/h (2 Bft) NO 45 2,6 C 7,5 km/h (2 Bft)
30.09.2015 10:35 4,6 C 5,0 C 87 % 1027,1 hPa 0,0 mm 7,8 km/h (2 Bft) O-NO 67 2,6 C 13,7 km/h (3 Bft)
30.09.2015 10:40 4,8 C 5,2 C 87 % 1027,1 hPa 0,0 mm 6,7 km/h (2 Bft) NO 45 2,8 C 9,6 km/h (2 Bft)
30.09.2015 10:45 4,8 C 5,3 C 86 % 1027,1 hPa 0,0 mm 6,7 km/h (2 Bft) NO 45 2,7 C 10,4 km/h (2 Bft)
30.09.2015 10:50 4,8 C 5,3 C 86 % 1027,1 hPa 0,0 mm 7,5 km/h (2 Bft) O 90 2,7 C 19,7 km/h (3 Bft)
30.09.2015 10:55 5,0 C 5,4 C 86 % 1026,9 hPa 0,0 mm 7,5 km/h (2 Bft) O 90 2,9 C 7,3 km/h (2 Bft)
30.09.2015 11:00 5,1 C 6,1 C 86 % 1026,9 hPa 0,0 mm 5,4 km/h (1 Bft) N-NO 22 3,0 C 9,1 km/h (2 Bft)
30.09.2015 11:05 5,2 C 5,7 C 86 % 1026,9 hPa 0,0 mm 6,7 km/h (2 Bft) O-NO 67 3,1 C 14,0 km/h (3 Bft)
30.09.2015 11:10 5,3 C 5,8 C 86 % 1026,9 hPa 0,0 mm 7,5 km/h (2 Bft) NO 45 3,2 C 2,8 km/h (1 Bft)
30.09.2015 11:15 5,4 C 6,2 C 86 % 1027,1 hPa 0,0 mm 6,5 km/h (2 Bft) N-NO 22 3,3 C 6,7 km/h (2 Bft)
30.09.2015 11:20 5,5 C 6,6 C 86 % 1027,1 hPa 0,0 mm 5,4 km/h (1 Bft) O-NO 67 3,3 C 3,1 km/h (1 Bft)
30.09.2015 11:25 5,6 C 6,4 C 86 % 1027,1 hPa 0,0 mm 7,3 km/h (2 Bft) O-NO 67 3,4 C 10,6 km/h (2 Bft)
30.09.2015 11:30 5,8 C 6,6 C 85 % 1027,1 hPa 0,0 mm 8,3 km/h (2 Bft) N-NO 22 3,5 C 8,8 km/h (2 Bft)
30.09.2015 11:35 5,8 C 6,4 C 85 % 1026,9 hPa 0,0 mm 9,6 km/h (2 Bft) NO 45 3,5 C 14,2 km/h (3 Bft)
30.09.2015 11:40 5,9 C 6,6 C 85 % 1026,9 hPa 0,0 mm 9,1 km/h (2 Bft) O-SO 112 3,6 C 10,4 km/h (2 Bft)
30.09.2015 11:45 6,0 C 6,7 C 83 % 1026,9 hPa 0,0 mm 8,5 km/h (2 Bft) NO 45 3,3 C 4,9 km/h (1 Bft)
30.09.2015 11:50 6,1 C 6,8 C 83 % 1026,9 hPa 0,0 mm 8,3 km/h (2 Bft) NO 45 3,4 C 13,5 km/h (3 Bft)
30.09.2015 11:55 6,2 C 7,2 C 83 % 1027,0 hPa 0,0 mm 7,3 km/h (2 Bft) NO 45 3,5 C 10,9 km/h (2 Bft)
30.09.2015 12:00 6,4 C 7,8 C 83 % 1027,0 hPa 0,0 mm 7,0 km/h (2 Bft) N-NO 22 3,7 C 9,1 km/h (2 Bft)
30.09.2015 12:05 6,5 C 7,9 C 82 % 1027,0 hPa 0,0 mm 7,5 km/h (2 Bft) NO 45 3,7 C 5,7 km/h (1 Bft)
30.09.2015 12:10 6,6 C 7,8 C 82 % 1027,0 hPa 0,0 mm 8,5 km/h (2 Bft) O 90 3,8 C 8,5 km/h (2 Bft)
30.09.2015 12:15 6,8 C 8,0 C 82 % 1027,0 hPa 0,0 mm 7,5 km/h (2 Bft) O-NO 67 3,9 C 11,7 km/h (2 Bft)
30.09.2015 12:20 6,9 C 8,4 C 81 % 1027,0 hPa 0,0 mm 7,5 km/h (2 Bft) O-NO 67 3,9 C 17,3 km/h (3 Bft)
30.09.2015 12:25 7,0 C 8,4 C 81 % 1027,0 hPa 0,0 mm 7,5 km/h (2 Bft) O-NO 67 4,0 C 8,8 km/h (2 Bft)
30.09.2015 12:30 7,1 C 8,8 C 80 % 1027,0 hPa 0,0 mm 7,0 km/h (2 Bft) O-NO 67 3,9 C 6,5 km/h (2 Bft)
30.09.2015 12:35 7,2 C 9,3 C 80 % 1026,8 hPa 0,0 mm 6,5 km/h (2 Bft) O-NO 67 4,0 C 5,4 km/h (1 Bft)
30.09.2015 12:40 7,3 C 9,6 C 80 % 1026,8 hPa 0,0 mm 6,0 km/h (2 Bft) S-SO 157 4,1 C 5,2 km/h (1 Bft)
30.09.2015 12:45 7,4 C 9,8 C 80 % 1026,8 hPa 0,0 mm 5,4 km/h (1 Bft) O-NO 67 4,2 C 7,0 km/h (2 Bft)
30.09.2015 12:50 7,5 C 9,9 C 80 % 1026,8 hPa 0,0 mm 4,9 km/h (1 Bft) O-SO 112 4,3 C 3,6 km/h (1 Bft)
30.09.2015 12:55 7,8 C 10,3 C 80 % 1026,6 hPa 0,0 mm 4,7 km/h (1 Bft) N-NO 22 4,6 C 3,1 km/h (1 Bft)
30.09.2015 13:00 9,1 C 12,4 C 79 % 1026,6 hPa 0,0 mm 3,6 km/h (1 Bft) O-NO 67 5,7 C 6,0 km/h (2 Bft)
30.09.2015 13:05 9,5 C 13,3 C 78 % 1026,6 hPa 0,0 mm 4,4 km/h (1 Bft) W-NW 292 5,9 C 6,5 km/h (2 Bft)
30.09.2015 13:10 10,2 C 14,4 C 76 % 1026,6 hPa 0,0 mm 5,7 km/h (1 Bft) N-NO 22 6,2 C 17,9 km/h (3 Bft)
30.09.2015 13:15 10,4 C 14,8 C 76 % 1026,7 hPa 0,0 mm 5,7 km/h (1 Bft) O-NO 67 6,4 C 11,1 km/h (2 Bft)
30.09.2015 13:20 11,1 C 15,6 C 74 % 1026,7 hPa 0,0 mm 7,8 km/h (2 Bft) S-SO 157 6,6 C 9,6 km/h (2 Bft)
30.09.2015 13:25 10,6 C 15,4 C 72 % 1026,7 hPa 0,0 mm 9,3 km/h (2 Bft) N-NO 22 5,8 C 8,0 km/h (2 Bft)
30.09.2015 13:30 10,5 C 15,0 C 71 % 1026,7 hPa 0,0 mm 9,6 km/h (2 Bft) O-NO 67 5,5 C 22,0 km/h (4 Bft)
30.09.2015 13:35 9,9 C 13,5 C 70 % 1026,9 hPa 0,0 mm 9,3 km/h (2 Bft) O-NO 67 4,7 C 13,7 km/h (3 Bft)
30.09.2015 13:40 9,6 C 11,8 C 71 % 1026,9 hPa 0,0 mm 8,8 km/h (2 Bft) NO 45 4,6 C 15,5 km/h (3 Bft)
30.09.2015 13:45 9,9 C 11,6 C 71 % 1026,9 hPa 0,0 mm 9,6 km/h (2 Bft) O-NO 67 4,9 C 19,7 km/h (3 Bft)
30.09.2015 13:50 10,1 C 11,9 C 70 % 1026,9 hPa 0,0 mm 10,1 km/h (2 Bft) O-NO 67 4,9 C 11,9 km/h (2 Bft)
30.09.2015 13:55 10,5 C 13,2 C 69 % 1027,0 hPa 0,0 mm 9,1 km/h (2 Bft) O-SO 112 5,1 C 8,8 km/h (2 Bft)
30.09.2015 14:00 11,0 C 15,0 C 69 % 1027,0 hPa 0,0 mm 6,7 km/h (2 Bft) O-NO 67 5,5 C 13,7 km/h (3 Bft)
30.09.2015 14:05 11,6 C 16,5 C 67 % 1027,0 hPa 0,0 mm 6,7 km/h (2 Bft) O-SO 112 5,7 C 8,3 km/h (2 Bft)
30.09.2015 14:10 11,6 C 16,5 C 67 % 1027,0 hPa 0,0 mm 6,7 km/h (2 Bft) O-SO 112 5,7 C 8,3 km/h (2 Bft)
30.09.2015 14:15 11,5 C 16,4 C 66 % 1026,9 hPa 0,0 mm 8,8 km/h (2 Bft) N-NO 22 5,4 C 3,6 km/h (1 Bft)
30.09.2015 14:20 11,8 C 16,9 C 66 % 1026,9 hPa 0,0 mm 7,5 km/h (2 Bft) O-NO 67 5,7 C 9,1 km/h (2 Bft)
30.09.2015 14:25 11,7 C 16,4 C 64 % 1026,9 hPa 0,0 mm 6,7 km/h (2 Bft) O-NO 67 5,1 C 11,7 km/h (2 Bft)
30.09.2015 14:30 11,7 C 15,7 C 64 % 1026,9 hPa 0,0 mm 8,3 km/h (2 Bft) NO 45 5,1 C 22,3 km/h (4 Bft)
30.09.2015 14:35 11,6 C 15,0 C 63 % 1027,0 hPa 0,0 mm 10,6 km/h (2 Bft) N-NO 22 4,8 C 17,9 km/h (3 Bft)
30.09.2015 14:40 11,6 C 14,9 C 62 % 1027,0 hPa 0,0 mm 11,1 km/h (2 Bft) O-NO 67 4,6 C 22,5 km/h (4 Bft)
30.09.2015 14:45 11,3 C 13,7 C 61 % 1027,0 hPa 0,0 mm 10,1 km/h (2 Bft) NO 45 4,1 C 21,5 km/h (4 Bft)
30.09.2015 14:50 11,0 C 12,7 C 62 % 1027,0 hPa 0,0 mm 9,1 km/h (2 Bft) N-NO 22 4,0 C 7,8 km/h (2 Bft)
30.09.2015 14:55 11,0 C 12,3 C 62 % 1026,8 hPa 0,0 mm 8,0 km/h (2 Bft) NO 45 4,0 C 5,2 km/h (1 Bft)
30.09.2015 15:00 11,1 C 12,4 C 62 % 1026,8 hPa 0,0 mm 7,0 km/h (2 Bft) O-NO 67 4,1 C 9,8 km/h (2 Bft)
30.09.2015 15:05 11,1 C 13,1 C 62 % 1026,8 hPa 0,0 mm 6,7 km/h (2 Bft) NW 315 4,1 C 5,2 km/h (1 Bft)
30.09.2015 15:10 11,3 C 12,9 C 62 % 1026,8 hPa 0,0 mm 8,5 km/h (2 Bft) O-NO 67 4,3 C 17,6 km/h (3 Bft)
30.09.2015 15:15 11,1 C 12,2 C 61 % 1026,6 hPa 0,0 mm 10,4 km/h (2 Bft) NO 45 3,9 C 12,4 km/h (3 Bft)
30.09.2015 15:20 10,9 C 11,5 C 62 % 1026,6 hPa 0,0 mm 9,6 km/h (2 Bft) N-NO 22 3,9 C 24,3 km/h (4 Bft)
30.09.2015 15:25 10,8 C 11,6 C 62 % 1026,6 hPa 0,0 mm 7,0 km/h (2 Bft) NO 45 3,8 C 15,8 km/h (3 Bft)
30.09.2015 15:30 11,1 C 12,1 C 62 % 1026,6 hPa 0,0 mm 6,0 km/h (2 Bft) NO 45 4,1 C 5,2 km/h (1 Bft)
30.09.2015 15:35 11,3 C 12,7 C 62 % 1026,3 hPa 0,0 mm 6,2 km/h (2 Bft) O-NO 67 4,3 C 7,8 km/h (2 Bft)
30.09.2015 15:40 11,0 C 12,5 C 61 % 1026,3 hPa 0,0 mm 7,5 km/h (2 Bft) N-NO 22 3,8 C 11,1 km/h (2 Bft)
30.09.2015 15:45 10,9 C 12,2 C 61 % 1026,3 hPa 0,0 mm 7,8 km/h (2 Bft) O 90 3,7 C 9,1 km/h (2 Bft)
30.09.2015 15:50 11,4 C 13,5 C 61 % 1026,3 hPa 0,0 mm 7,3 km/h (2 Bft) S-SO 157 4,2 C 15,8 km/h (3 Bft)
30.09.2015 15:55 11,3 C 13,2 C 60 % 1026,2 hPa 0,0 mm 8,3 km/h (2 Bft) N-NO 22 3,8 C 6,5 km/h (2 Bft)
30.09.2015 16:00 11,9 C 14,3 C 61 % 1026,2 hPa 0,0 mm 7,5 km/h (2 Bft) O-NO 67 4,6 C 11,1 km/h (2 Bft)
30.09.2015 16:05 12,1 C 15,2 C 59 % 1026,2 hPa 0,0 mm 6,7 km/h (2 Bft) O-NO 67 4,3 C 27,7 km/h (4 Bft)
30.09.2015 16:10 12,2 C 15,9 C 59 % 1026,2 hPa 0,0 mm 8,8 km/h (2 Bft) N-NO 22 4,4 C 4,1 km/h (1 Bft)
30.09.2015 16:15 12,1 C 15,6 C 59 % 1025,8 hPa 0,0 mm 9,8 km/h (2 Bft) O-SO 112 4,3 C 13,7 km/h (3 Bft)
30.09.2015 16:20 11,3 C 12,9 C 59 % 1025,8 hPa 0,0 mm 11,4 km/h (2 Bft) O-NO 67 3,6 C 13,7 km/h (3 Bft)
30.09.2015 16:25 10,9 C 11,8 C 59 % 1025,8 hPa 0,0 mm 11,1 km/h (2 Bft) O-NO 67 3,2 C 12,2 km/h (2 Bft)
30.09.2015 16:30 10,9 C 11,6 C 60 % 1025,8 hPa 0,0 mm 8,3 km/h (2 Bft) NO 45 3,4 C 12,9 km/h (3 Bft)
30.09.2015 16:35 10,9 C 11,6 C 60 % 1025,9 hPa 0,0 mm 8,0 km/h (2 Bft) O-SO 112 3,4 C 11,9 km/h (2 Bft)
30.09.2015 16:40 10,8 C 10,9 C 59 % 1025,9 hPa 0,0 mm 11,4 km/h (2 Bft) O-NO 67 3,1 C 28,2 km/h (4 Bft)
30.09.2015 16:45 10,6 C 10,7 C 59 % 1025,9 hPa 0,0 mm 12,7 km/h (3 Bft) O-NO 67 2,9 C 19,9 km/h (4 Bft)
30.09.2015 16:50 10,6 C 10,8 C 60 % 1025,9 hPa 0,0 mm 8,5 km/h (2 Bft) N-NO 22 3,2 C 6,2 km/h (2 Bft)
30.09.2015 16:55 10,8 C 11,4 C 61 % 1025,8 hPa 0,0 mm 6,0 km/h (2 Bft) W-NW 292 3,6 C 13,5 km/h (3 Bft)
30.09.2015 17:00 11,0 C 11,6 C 59 % 1025,8 hPa 0,0 mm 7,8 km/h (2 Bft) O 90 3,3 C 15,5 km/h (3 Bft)
30.09.2015 17:05 10,8 C 11,5 C 59 % 1025,8 hPa 0,0 mm 7,3 km/h (2 Bft) NO 45 3,1 C 9,3 km/h (2 Bft)
30.09.2015 17:10 10,7 C 11,2 C 60 % 1025,8 hPa 0,0 mm 6,7 km/h (2 Bft) O-NO 67 3,3 C 11,9 km/h (2 Bft)
30.09.2015 17:15 10,7 C 11,1 C 60 % 1025,8 hPa 0,0 mm 7,3 km/h (2 Bft) O-NO 67 3,3 C 11,4 km/h (2 Bft)
30.09.2015 17:20 10,6 C 10,9 C 59 % 1025,8 hPa 0,0 mm 8,3 km/h (2 Bft) O-NO 67 2,9 C 14,5 km/h (3 Bft)
30.09.2015 17:25 10,5 C 10,6 C 59 % 1025,8 hPa 0,0 mm 9,6 km/h (2 Bft) NO 45 2,8 C 16,3 km/h (3 Bft)
30.09.2015 17:30 10,3 C 10,2 C 59 % 1025,8 hPa 0,0 mm 10,6 km/h (2 Bft) O-NO 67 2,6 C 14,5 km/h (3 Bft)
30.09.2015 17:35 10,1 C 10,0 C 60 % 1025,7 hPa 0,0 mm 9,1 km/h (2 Bft) O 90 2,7 C 8,5 km/h (2 Bft)
30.09.2015 17:40 9,9 C 10,0 C 60 % 1025,7 hPa 0,0 mm 6,7 km/h (2 Bft) O-SO 112 2,5 C 8,3 km/h (2 Bft)
30.09.2015 17:45 9,9 C 9,9 C 61 % 1025,7 hPa 0,0 mm 5,7 km/h (1 Bft) NO 45 2,7 C 3,1 km/h (1 Bft)
30.09.2015 17:50 9,9 C 10,0 C 62 % 1025,7 hPa 0,0 mm 4,9 km/h (1 Bft) N-NO 22 3,0 C 10,1 km/h (2 Bft)
30.09.2015 17:55 9,9 C 9,9 C 61 % 1025,6 hPa 0,0 mm 7,5 km/h (2 Bft) O-NO 67 2,7 C 8,0 km/h (2 Bft)
30.09.2015 18:00 9,9 C 9,8 C 61 % 1025,6 hPa 0,0 mm 8,3 km/h (2 Bft) O-NO 67 2,7 C 8,0 km/h (2 Bft)
30.09.2015 18:05 9,8 C 9,9 C 61 % 1025,6 hPa 0,0 mm 6,2 km/h (2 Bft) SO 135 2,6 C 9,3 km/h (2 Bft)
30.09.2015 18:10 9,8 C 9,8 C 61 % 1025,6 hPa 0,0 mm 5,4 km/h (1 Bft) NO 45 2,6 C 12,9 km/h (3 Bft)
30.09.2015 18:15 9,7 C 9,7 C 61 % 1025,6 hPa 0,0 mm 6,2 km/h (2 Bft) N-NO 22 2,5 C 9,3 km/h (2 Bft)
30.09.2015 18:20 9,6 C 9,5 C 61 % 1025,6 hPa 0,0 mm 8,5 km/h (2 Bft) O-NO 67 2,5 C 16,1 km/h (3 Bft)
30.09.2015 18:25 9,5 C 9,4 C 61 % 1025,6 hPa 0,0 mm 8,5 km/h (2 Bft) NO 45 2,4 C 12,9 km/h (3 Bft)
30.09.2015 18:30 9,3 C 9,3 C 61 % 1025,6 hPa 0,0 mm 6,0 km/h (2 Bft) W-NW 292 2,2 C 2,8 km/h (1 Bft)
30.09.2015 18:35 9,3 C 9,3 C 62 % 1025,9 hPa 0,0 mm 4,1 km/h (1 Bft) O-NO 67 2,4 C 8,3 km/h (2 Bft)
30.09.2015 18:40 9,1 C 9,1 C 62 % 1025,9 hPa 0,0 mm 3,9 km/h (1 Bft) SO 135 2,2 C 4,9 km/h (1 Bft)
30.09.2015 18:45 9,0 C 9,0 C 62 % 1025,9 hPa 0,0 mm 4,1 km/h (1 Bft) O-SO 112 2,1 C 0,0 km/h (0 Bft)
30.09.2015 18:50 8,8 C 8,8 C 62 % 1025,9 hPa 0,0 mm 2,3 km/h (1 Bft) O-SO 112 1,9 C 5,7 km/h (1 Bft)
30.09.2015 18:55 8,8 C 8,7 C 62 % 1025,9 hPa 0,0 mm 1,8 km/h (1 Bft) NO 45 1,9 C 2,8 km/h (1 Bft)
30.09.2015 19:00 8,6 C 8,5 C 63 % 1025,9 hPa 0,0 mm 3,4 km/h (1 Bft) O-NO 67 2,0 C 0,0 km/h (0 Bft)
30.09.2015 19:05 8,5 C 8,4 C 63 % 1025,9 hPa 0,0 mm 2,3 km/h (1 Bft) NO 45 1,9 C 0,0 km/h (0 Bft)
30.09.2015 19:10 8,3 C 8,2 C 63 % 1025,9 hPa 0,0 mm 0,3 km/h (0 Bft) O-SO 112 1,7 C 0,0 km/h (0 Bft)
30.09.2015 19:15 8,3 C 8,2 C 63 % 1026,0 hPa 0,0 mm 0,3 km/h (0 Bft) O-NO 67 1,7 C 0,0 km/h (0 Bft)
30.09.2015 19:20 8,2 C 8,1 C 63 % 1026,0 hPa 0,0 mm 0,5 km/h (0 Bft) O-NO 67 1,6 C 7,5 km/h (2 Bft)
30.09.2015 19:25 8,1 C 8,0 C 64 % 1026,0 hPa 0,0 mm 0,8 km/h (0 Bft) O-SO 112 1,7 C 0,0 km/h (0 Bft)
30.09.2015 19:30 7,9 C 7,8 C 64 % 1026,0 hPa 0,0 mm 0,8 km/h (0 Bft) NO 45 1,5 C 2,8 km/h (1 Bft)
30.09.2015 19:35 7,9 C 7,8 C 64 % 1026,0 hPa 0,0 mm 0,5 km/h (0 Bft) NO 45 1,5 C 6,5 km/h (2 Bft)
30.09.2015 19:40 7,9 C 7,8 C 64 % 1026,0 hPa 0,0 mm 1,8 km/h (1 Bft) O-NO 67 1,5 C 0,0 km/h (0 Bft)
30.09.2015 19:45 7,8 C 7,7 C 64 % 1026,0 hPa 0,0 mm 1,8 km/h (1 Bft) O-SO 112 1,4 C 0,0 km/h (0 Bft)
30.09.2015 19:50 7,8 C 7,7 C 64 % 1026,0 hPa 0,0 mm 0,5 km/h (0 Bft) SO 135 1,4 C 0,0 km/h (0 Bft)
30.09.2015 19:55 7,8 C 7,7 C 65 % 1025,9 hPa 0,0 mm 1,3 km/h (1 Bft) O-NO 67 1,6 C 0,0 km/h (0 Bft)
30.09.2015 20:00 7,8 C 7,7 C 65 % 1025,9 hPa 0,0 mm 1,8 km/h (1 Bft) N-NO 22 1,6 C 0,0 km/h (0 Bft)
30.09.2015 20:05 7,6 C 7,5 C 65 % 1025,9 hPa 0,0 mm 1,0 km/h (0 Bft) N-NO 22 1,5 C 6,0 km/h (2 Bft)
30.09.2015 20:07 7,6 C 7,5 C 65 % 1025,9 hPa 0,0 mm 1,0 km/h (0 Bft) N-NO 22 1,5 C 6,0 km/h (2 Bft)
30.09.2015 20:10 7,6 C 7,5 C 65 % 1025,9 hPa 0,0 mm 1,0 km/h (0 Bft) N-NO 22 1,5 C 6,0 km/h (2 Bft)
30.09.2015 20:15 7,5 C 7,4 C 65 % 1025,8 hPa 0,0 mm 1,8 km/h (1 Bft) N-NO 22 1,4 C 12,9 km/h (3 Bft)
30.09.2015 20:20 7,5 C 7,4 C 65 % 1025,8 hPa 0,0 mm 4,4 km/h (1 Bft) O-NO 67 1,4 C 5,2 km/h (1 Bft)
30.09.2015 20:25 7,4 C 7,3 C 65 % 1025,8 hPa 0,0 mm 4,9 km/h (1 Bft) NO 45 1,3 C 13,2 km/h (3 Bft)
30.09.2015 20:30 7,4 C 7,2 C 64 % 1025,8 hPa 0,0 mm 6,7 km/h (2 Bft) NO 45 1,0 C 11,1 km/h (2 Bft)
30.09.2015 20:35 7,3 C 6,9 C 64 % 1025,8 hPa 0,0 mm 8,3 km/h (2 Bft) O-NO 67 1,0 C 10,6 km/h (2 Bft)
30.09.2015 20:40 7,2 C 6,8 C 64 % 1025,8 hPa 0,0 mm 9,1 km/h (2 Bft) NO 45 0,9 C 12,4 km/h (3 Bft)
30.09.2015 20:45 7,0 C 6,6 C 64 % 1025,8 hPa 0,0 mm 8,8 km/h (2 Bft) O-NO 67 0,7 C 9,1 km/h (2 Bft)
30.09.2015 20:50 6,6 C 6,5 C 64 % 1025,8 hPa 0,0 mm 4,9 km/h (1 Bft) O-NO 67 0,3 C 7,3 km/h (2 Bft)
30.09.2015 20:55 6,6 C 6,4 C 65 % 1025,8 hPa 0,0 mm 3,4 km/h (1 Bft) O-NO 67 0,5 C 9,3 km/h (2 Bft)
30.09.2015 21:00 6,4 C 6,2 C 65 % 1025,8 hPa 0,0 mm 3,4 km/h (1 Bft) O-SO 112 0,3 C 0,0 km/h (0 Bft)
30.09.2015 21:05 6,2 C 6,0 C 66 % 1025,8 hPa 0,0 mm 3,1 km/h (1 Bft) N-NO 22 0,3 C 4,4 km/h (1 Bft)
30.09.2015 21:10 6,3 C 6,0 C 66 % 1025,8 hPa 0,0 mm 4,7 km/h (1 Bft) O-NO 67 0,4 C 4,9 km/h (1 Bft)
30.09.2015 21:15 6,2 C 5,9 C 66 % 1025,9 hPa 0,0 mm 5,2 km/h (1 Bft) O 90 0,3 C 9,6 km/h (2 Bft)
30.09.2015 21:20 5,9 C 5,7 C 67 % 1025,9 hPa 0,0 mm 2,6 km/h (1 Bft) W-SW 247 0,3 C 0,0 km/h (0 Bft)
30.09.2015 21:25 5,7 C 5,4 C 67 % 1025,9 hPa 0,0 mm 2,1 km/h (1 Bft) S-SO 157 0,1 C 0,0 km/h (0 Bft)
30.09.2015 21:30 5,6 C 5,3 C 68 % 1025,9 hPa 0,0 mm 1,3 km/h (1 Bft) O-NO 67 0,2 C 0,0 km/h (0 Bft)
30.09.2015 21:35 5,4 C 5,1 C 68 % 1025,7 hPa 0,0 mm 1,0 km/h (0 Bft) SO 135 -0,0 C 0,0 km/h (0 Bft)
30.09.2015 21:40 5,0 C 4,6 C 68 % 1025,7 hPa 0,0 mm 0,5 km/h (0 Bft) SO 135 -0,4 C 4,1 km/h (1 Bft)
30.09.2015 21:45 5,2 C 4,7 C 69 % 1025,7 hPa 0,0 mm 1,3 km/h (1 Bft) SO 135 -0,0 C 3,9 km/h (1 Bft)
30.09.2015 21:50 5,1 C 4,7 C 69 % 1025,7 hPa 0,0 mm 2,1 km/h (1 Bft) S 180 -0,1 C 2,6 km/h (1 Bft)
30.09.2015 21:55 5,0 C 4,6 C 70 % 1025,7 hPa 0,0 mm 2,3 km/h (1 Bft) SO 135 -0,0 C 5,7 km/h (1 Bft)
30.09.2015 22:00 4,9 C 4,5 C 70 % 1025,7 hPa 0,0 mm 2,6 km/h (1 Bft) S-SO 157 -0,1 C 0,0 km/h (0 Bft)
30.09.2015 22:05 4,7 C 4,3 C 70 % 1025,7 hPa 0,0 mm 1,8 km/h (1 Bft) O-SO 112 -0,3 C 4,1 km/h (1 Bft)
30.09.2015 22:10 4,6 C 4,2 C 71 % 1025,7 hPa 0,0 mm 1,3 km/h (1 Bft) O 90 -0,2 C 2,6 km/h (1 Bft)
30.09.2015 22:15 4,6 C 4,2 C 71 % 1025,9 hPa 0,0 mm 1,3 km/h (1 Bft) S 180 -0,2 C 0,0 km/h (0 Bft)
30.09.2015 22:20 4,4 C 4,0 C 71 % 1025,9 hPa 0,0 mm 0,8 km/h (0 Bft) O-NO 67 -0,4 C 0,0 km/h (0 Bft)
30.09.2015 22:25 4,2 C 3,8 C 71 % 1025,9 hPa 0,0 mm 0,5 km/h (0 Bft) SO 135 -0,6 C 2,6 km/h (1 Bft)
30.09.2015 22:30 4,0 C 3,6 C 72 % 1025,9 hPa 0,0 mm 0,0 km/h (0 Bft) S 180 -0,6 C 0,0 km/h (0 Bft)
30.09.2015 22:35 3,9 C 3,4 C 73 % 1025,6 hPa 0,0 mm 0,0 km/h (0 Bft) S-SO 157 -0,5 C 0,0 km/h (0 Bft)
30.09.2015 22:40 3,7 C 3,2 C 73 % 1025,6 hPa 0,0 mm 0,0 km/h (0 Bft) SO 135 -0,7 C 0,0 km/h (0 Bft)
30.09.2015 22:45 3,6 C 3,1 C 73 % 1025,6 hPa 0,0 mm 0,0 km/h (0 Bft) S 180 -0,8 C 0,0 km/h (0 Bft)
30.09.2015 22:50 3,5 C 3,0 C 73 % 1025,6 hPa 0,0 mm 0,3 km/h (0 Bft) O 90 -0,9 C 2,8 km/h (1 Bft)
30.09.2015 22:55 3,5 C 3,0 C 74 % 1025,7 hPa 0,0 mm 0,8 km/h (0 Bft) SO 135 -0,7 C 5,4 km/h (1 Bft)
30.09.2015 23:00 3,4 C 2,9 C 73 % 1025,7 hPa 0,0 mm 1,0 km/h (0 Bft) SO 135 -1,0 C 0,0 km/h (0 Bft)
30.09.2015 23:05 3,4 C 2,9 C 74 % 1025,7 hPa 0,0 mm 0,5 km/h (0 Bft) SO 135 -0,8 C 2,6 km/h (1 Bft)
30.09.2015 23:10 3,3 C 2,8 C 74 % 1025,7 hPa 0,0 mm 0,3 km/h (0 Bft) S 180 -0,9 C 0,0 km/h (0 Bft)
30.09.2015 23:15 2,7 C 2,3 C 75 % 1025,2 hPa 0,0 mm 0,3 km/h (0 Bft) SO 135 -1,3 C 0,0 km/h (0 Bft)
30.09.2015 23:20 2,6 C 2,1 C 76 % 1025,2 hPa 0,0 mm 0,0 km/h (0 Bft) S 180 -1,2 C 0,0 km/h (0 Bft)
30.09.2015 23:25 2,7 C 2,1 C 76 % 1025,2 hPa 0,0 mm 0,0 km/h (0 Bft) S-SO 157 -1,1 C 0,0 km/h (0 Bft)
30.09.2015 23:30 2,9 C 2,2 C 77 % 1025,2 hPa 0,0 mm 0,0 km/h (0 Bft) S-SO 157 -0,7 C 0,0 km/h (0 Bft)
30.09.2015 23:35 3,0 C 2,3 C 77 % 1025,2 hPa 0,0 mm 0,0 km/h (0 Bft) O-SO 112 -0,6 C 0,0 km/h (0 Bft)
30.09.2015 23:40 3,0 C 2,3 C 77 % 1025,2 hPa 0,0 mm 0,3 km/h (0 Bft) SO 135 -0,6 C 3,1 km/h (1 Bft)
30.09.2015 23:45 2,9 C 2,3 C 77 % 1025,2 hPa 0,0 mm 0,5 km/h (0 Bft) S 180 -0,7 C 3,1 km/h (1 Bft)
30.09.2015 23:50 2,7 C 2,2 C 77 % 1025,2 hPa 0,0 mm 0,8 km/h (0 Bft) O-SO 112 -0,9 C 3,6 km/h (1 Bft)
30.09.2015 23:55 2,6 C 2,1 C 77 % 1025,0 hPa 0,0 mm 1,3 km/h (1 Bft) S 180 -1,0 C 2,6 km/h (1 Bft)
_ Min-Zeit 04:25 04:00 17:30 23:55 - 23:35 - - 23:15 23:35
Minimum _ 0,8 C 0,6 C 59 % 1025,0 hPa - 0,0 km/h (0 Bft) - - -1,3 C 0,0 km/h (0 Bft)
_ Max-Zeit 16:10 14:20 05:40 11:30 23:55 16:45 - - 13:20 16:40
Maximum _ 12,2 C 16,9 C 90 % 1027,1 hPa 0,0 mm 12,7 km/h
O-NO (3 Bft)
- - 6,6 C 28,2 km/h
O-NO (4 Bft)
Durchschnitt _ 5,8 C 6,3 C 77 % 1026,1 hPa #0,0 mm 3,9 km/h (1 Bft) O-NO - 1,9 C 5,8 km/h (2 Bft)